Bozeman, MT

6:22 PM MDT on June 28, 2017 (GMT -0600)
Gallatin

Weather History for KBZN - May, 2013

Change the Weather History Date:

Saturday, May 11, 2013

  Actual Average Record
Temperature  
Mean Temperature 57 °F 52 °F  
Max Temperature 77 °F 67 °F 86 °F (1960)
Min Temperature 37 °F 38 °F 22 °F (1953)
Degree Days  
Heating Degree Days 8 13  
Month to date heating degree days 163 156  
Since 1 July heating degree days 7622 7217  
Cooling Degree Days 0 0  
Month to date cooling degree days 0 0  
Year to date cooling degree days 0 0  
Growing Degree Days 8 (Base 50)    
Moisture  
Dew Point 32 °F    
Average Humidity 42    
Maximum Humidity 65    
Minimum Humidity 18    
Precipitation  
Precipitation 0.00 in 0.07 in 0.83 in (1956)
Month to date precipitation 0.05 0.72  
Year to date precipitation 1.24 4.17  
Snow  
Snow 0.00 in 0.10 in 3.00 in (1956)
Month to date snowfall 1.8 1.3  
Since 1 July snowfall 24.6 38.8  
Snow Depth 0.00 in    
Sea Level Pressure  
Sea Level Pressure 30.21 in    
Wind  
Wind Speed 4 mph (West)    
Max Wind Speed 14 mph    
Max Gust Speed 17 mph    
Visibility 10 miles    
Events      
T = Trace of Precipitation, MM = Missing Value Source: NWS Daily Summary

Daily Weather History Graph

Daily Weather History Graph

Search for Another Location

Airport or City:

Trip Planner

Search our weather history database for the weather conditions in past years. The results will help you decide how hot, cold, wet, or windy it might be!

Date:

Astronomy

May. 11, 2013 Rise Set
Actual Time 5:57 AM MDT 8:45 PM MDT
Civil Twilight 5:23 AM MDT 9:19 PM MDT
Nautical Twilight 4:39 AM MDT 10:03 PM MDT
Astronomical Twilight 3:48 AM MDT 10:54 PM MDT
Moon 7:06 AM MDT (5/11) 10:30 PM MDT (5/11)
Length of Visible Light 15h 56m
Length of Day
14h 47m
Waxing Crescent, 3% of the Moon is Illuminated
May 11
Waxing Crescent
May 17
First Quarter
May 24
Full
May 31
Last Quarter
Jun 8
New

Hourly Weather History & Observations

Time (MDT) Temp. Windchill Dew Point Humidity Pressure Visibility Wind Dir Wind Speed Gust Speed Precip Events Conditions
12:56 AM 48.9 °F - 30.0 °F 48% 30.31 in 10.0 mi NNE 3.5 mph - N/A   Partly Cloudy
1:56 AM 43.0 °F - 30.0 °F 60% 30.33 in 10.0 mi Calm Calm - N/A   Clear
2:56 AM 46.0 °F 42.5 °F 28.9 °F 51% 30.31 in 10.0 mi SW 6.9 mph - N/A   Clear
3:56 AM 44.1 °F 40.1 °F 28.9 °F 55% 30.31 in 10.0 mi WNW 6.9 mph - N/A   Mostly Cloudy
4:56 AM 46.9 °F - 28.0 °F 48% 30.30 in 10.0 mi SSW 8.1 mph - N/A   Clear
5:56 AM 43.0 °F 39.5 °F 27.0 °F 53% 30.30 in 10.0 mi West 5.8 mph - N/A   Partly Cloudy
6:56 AM 41.0 °F 38.0 °F 30.9 °F 67% 30.30 in 10.0 mi South 4.6 mph - N/A   Clear
7:56 AM 48.0 °F - 30.9 °F 52% 30.29 in 10.0 mi NNW 3.5 mph - N/A   Clear
8:56 AM 53.1 °F - 30.9 °F 43% 30.28 in 10.0 mi Calm Calm - N/A   Clear
9:56 AM 55.9 °F - 34.0 °F 44% 30.26 in 10.0 mi Calm Calm - N/A   Mostly Cloudy
10:56 AM 62.1 °F - 35.1 °F 37% 30.24 in 10.0 mi NNW 3.5 mph - N/A   Clear
11:56 AM 64.9 °F - 35.1 °F 33% 30.22 in 10.0 mi Calm Calm - N/A   Clear
12:56 PM 68.0 °F - 36.0 °F 31% 30.19 in 10.0 mi Calm Calm - N/A   Clear
1:56 PM 70.0 °F - 34.0 °F 27% 30.19 in 10.0 mi Calm Calm - N/A   Clear
2:56 PM 73.0 °F - 34.0 °F 24% 30.15 in 10.0 mi NNW 3.5 mph - N/A   Clear
3:56 PM 75.9 °F - 28.9 °F 18% 30.13 in 10.0 mi Variable 5.8 mph - N/A   Clear
4:56 PM 73.0 °F - 34.0 °F 24% 30.11 in 10.0 mi NW 3.5 mph - N/A   Scattered Clouds
5:56 PM 75.0 °F - 32.0 °F 21% 30.11 in 10.0 mi NE 5.8 mph - N/A   Partly Cloudy
6:56 PM 73.9 °F - 30.9 °F 21% 30.10 in 10.0 mi West 9.2 mph - N/A   Overcast
7:56 PM 71.1 °F - 30.0 °F 22% 30.08 in 10.0 mi SSW 3.5 mph - N/A   Mostly Cloudy
8:56 PM 64.9 °F - 36.0 °F 34% 30.09 in 10.0 mi ENE 4.6 mph - N/A   Clear
9:56 PM 62.1 °F - 36.0 °F 38% 30.10 in 10.0 mi Calm Calm - N/A   Scattered Clouds
10:56 PM 53.1 °F - 39.0 °F 59% 30.12 in 10.0 mi SSE 5.8 mph - N/A   Partly Cloudy
11:56 PM 52.0 °F - 37.0 °F 57% 30.12 in 10.0 mi SSE 8.1 mph - N/A   Scattered Clouds